World > North America > United States > Texas

Hourly Dundee, TX Regional Weather

Feedback E-mail the Weather

Quick WX

Dundee, TX Weather Maps

°F °C°F °C
Dundee Weather Map
UTC Time: 6/29/2022, 13:11
Your Time:

Dundee, TX Regional Weather

Expires:202206291400;;384791
ASUS44 KFWD 291310
RWRTX 
NORTH TEXAS HOURLY WEATHER ROUNDUP
NATIONAL WEATHER SERVICE FORT WORTH TX
800 AM CDT WED JUN 29 2022

NOTE: "FAIR" INDICATES FEW OR NO CLOUDS BELOW 12,000 FEET WITH NO
SIGNIFICANT WEATHER AND/OR OBSTRUCTIONS TO VISIBILITY.


TXZ083>090-098>101-113>116-127>130-139>142-154-155-291400-
WESTERN NORTH TEXAS
  
CITY           SKY/WX    TMP DP  RH WIND       PRES   REMARKS
WICHITA FALLS  FAIR      68  62  81 N5        30.20R                  
WF-KICKAPOO    FAIR      68  61  77 NW6       30.22R                  
VERNON         FAIR      69  66  90 E3        30.22R                  
ABILENE        FAIR      72  59  63 CALM      30.22R                  
ABILENE-DYESS  FAIR      72  57  60 CALM      30.20R                  
GRAHAM         FAIR      68  63  84 CALM      30.19R                  
BRECKENRIDGE   FAIR      70  66  89 CALM      30.20R FOG              
CISCO          FAIR      70  61  73 E6        30.19R                  
EASTLAND       FAIR      69  62  78 E3        30.21R HAZE             
RANGER         FAIR      70  62  74 E3        30.21R                  
MINERAL WELLS  FAIR      71  63  75 CALM      30.18R                  
STEPHENVILLE   FAIR      72  56  57 CALM      30.23R                  
BROWNWOOD      FAIR      70  66  88 CALM      30.21                   
COLEMAN        FAIR      72  58  62 CALM      30.21R                  
SAN SABA       FAIR      71  64  79 CALM      30.21R                  
$$


SKY/WX - Weather  TMP - Temperature  DP - Dew Point  RH - Humidity
WIND - Wind Direction/Speed PRES - Barometric Pressure VSB - Visibility
WCI - Wind Chill Index E13G22 Wind - East Wind 13 mph/Gusts of 22 mph

Trending Headlines

Dundee Radar Loop



Dundee Quick Facts


National Two Day Weather Forecast


E-mail the Dundee Weather Forecast

Voice your opinion or tell us about page issues...